Location: Kitchener
(43.4500°N, 80.5000°W)
Time: 07:04:47
(UTC-04:00)

Daily predictions for brighter satellites

Satellite Brightness Start Highest point End
(mag) Time Altitude Azimuth Time Altitude Azimuth Time Altitude Azimuth
SL-8 Rocket 4.0 18:52:49 10° S 18:59:00 83° E 19:05:15 10° N
Cosmos 2322 Rocket 2.7 18:53:40 10° NNW 18:59:15 65° WSW 19:04:47 10° SSE
Meteor 2-15 Rocket 4.5 18:53:09 10° N 18:59:17 86° E 19:05:24 10° S
BREEZE-M DEB (TANK) 3.6 18:56:11 10° WNW 18:59:46 64° NNE 19:12:25 10° ESE
COSMO-SKYMED 1 3.2 18:56:32 10° NNE 19:00:34 36° E 19:04:33 10° SSE
Cosmos 1833 4.4 18:55:17 10° S 19:00:45 50° ESE 19:06:11 10° NE
Cosmos 1408 Rocket 4.1 18:59:14 10° NNW 19:03:39 66° W 19:08:04 10° S
Abrixas rocket 3.1 19:08:41 10° W 19:11:49 40° NNW 19:14:57 10° ENE
Ariane Rocket 4.4 19:11:33 10° S 19:16:24 44° W 19:21:17 10° NNW
Cosmos 1315 Rocket 3.3 19:12:47 10° N 19:16:39 41° ENE 19:20:32 10° SSE
FENGYUN 3A 4.0 19:13:18 10° SE 19:18:21 43° ENE 19:23:26 10° N
Cosmos 44 4.1 19:16:28 10° SSE 19:19:57 24° ESE 19:23:07 11° ENE
EO 1 Del DPAF 3.2 19:16:40 10° NNE 19:20:31 75° ESE 19:24:20 10° S
Meteor 2-1 Rocket 4.3 19:16:31 10° S 19:22:12 62° E 19:28:01 10° NNE
Cosmos 2322 3.7 19:18:11 10° NNW 19:23:54 68° ENE 19:29:35 10° SSE
YAOGAN 1 2.9 19:20:35 10° S 19:24:53 71° WSW 19:29:14 10° NNW
Cosmos 2218 Rocket 4.2 19:18:53 10° SSW 19:25:01 76° W 19:31:12 10° N
SKYMED 3 4.5 19:26:20 10° NNE 19:30:41 77° ESE 19:35:01 10° S
Cosmos 2151 3.0 19:26:38 10° N 19:30:56 88° WSW 19:35:11 10° S
Cosmos 1727 Rocket 4.1 19:27:08 10° N 19:33:31 86° W 19:39:51 10° S
SPOT 3 Rocket 3.5 19:29:45 10° SSE 19:34:56 84° ENE 19:40:12 10° NNW
ERS-2 4.0 19:31:58 10° SSW 19:35:22 35° W 19:38:48 10° NNW
Aureole 2 4.1 19:36:11 10° NNW 19:39:15 75° ENE 19:42:39 10° SSE
RESURS DK-1 2.6 19:35:19 10° NNW 19:39:27 70° WSW 19:43:32 10° SSE
Cosmos 2219 Rocket 2.9 19:34:34 10° N 19:39:38 34° NE 19:43:15 17° ESE
Lacrosse 5 rocket 3.8 19:37:01 10° NW 19:39:48 16° NNW 19:42:31 10° NNE
Cosmos 468 4.5 19:35:53 10° S 19:41:00 61° ESE 19:46:10 10° NNE
SJ-6B 3.8 19:40:35 22° E 19:41:26 24° ENE 19:44:29 10° NNE
GRACE-2 3.5 19:38:52 10° S 19:41:26 89° NE 19:44:01 10° N
GP-B 3.7 19:37:10 10° N 19:41:33 60° W 19:45:54 10° SSW
FREGAT/IRIS 3.4 19:42:27 28° E 19:42:54 29° ENE 19:45:34 10° N
Cosmos 44 Rocket 3.6 19:39:03 10° S 19:43:26 40° ESE 19:46:44 16° NE
SL-8 R/B 3.7 19:39:39 10° WSW 19:44:29 87° NNW 19:47:49 20° ENE
GRACE-1 3.8 19:42:11 10° S 19:44:46 76° W 19:47:21 10° N
Cosmos 1452 Rocket 3.7 19:42:03 10° NNW 19:47:19 76° WSW 19:52:33 10° SSE
Cosmos 1703 4.2 19:44:28 10° NNW 19:48:17 50° W 19:52:04 10° S
SKYMED 2 3.9 19:44:22 10° N 19:48:41 68° WNW 19:52:59 10° SSW
Cosmos 2058 3.7 19:44:50 10° NNW 19:48:56 55° W 19:52:58 10° S
Cosmos 1726 2.6 19:45:43 10° SSE 19:49:07 36° E 19:52:32 10° NNE
Cosmos 2098 Rocket 3.6 19:45:34 10° SSE 19:49:50 49° E 19:55:17 10° NNE
Cosmos 2123 Rocket 4.5 19:44:38 10° N 19:50:22 37° ENE 19:56:05 10° SE
Atlas Centaur 2 4.0 19:47:59 10° SW 19:50:58 16° S 19:54:22 10° SE
BREEZE-M DEB (TANK) 3.8 19:51:39 10° W 19:53:00 15° SW 19:54:23 10° S
Gbstr 26 Del rocket 3.7 19:49:52 10° NW 19:54:49 62° NNE 19:58:17 25° ESE
Aureole 2 Rocket 3.2 19:53:47 10° N 19:57:26 38° ENE 19:58:14 34° E
Cosmos 2333 4.2 19:53:54 10° NNW 19:59:38 71° ENE 20:05:22 10° SSE
Cosmos 2221 2.4 19:55:34 10° S 19:59:53 87° E 20:04:16 10° N
Cosmos 1908 3.5 19:58:01 10° SSW 20:01:55 69° W 20:05:50 10° N
Cosmos 2237 4.4 19:56:37 10° NNW 20:02:21 74° WSW 20:08:01 10° SSE
CZ-4C R/B 2.2 19:59:49 10° SSW 20:04:49 52° ESE 20:08:30 21° NE
USA 234 4.3 20:02:15 19° ENE 20:05:47 31° NNE 20:11:23 10° NW
NOAA 12 4.5 20:01:23 10° S 20:06:39 67° WSW 20:11:58 10° NNW
Cosmos 921 Rocket 3.9 20:02:32 10° NNW 20:06:52 51° WSW 20:11:05 10° S
BREEZE-M DEB (TANK) 2.6 20:05:19 10° W 20:07:09 38° NNW 20:07:09 38° NNW
H-2A R/B 2.6 20:07:33 17° SSE 20:10:23 69° ENE 20:14:19 10° N
SAR-Lupe-3 4.5 20:07:05 10° NNE 20:10:41 87° WNW 20:14:16 10° SSW
Iridium 4 Rocket 3.7 20:06:44 10° S 20:12:17 86° W 20:18:11 10° N
Cosmos 2237 Rocket 2.9 20:07:10 10° N 20:12:21 34° NE 20:13:12 32° ENE
In-Cosmos 22 Rocket 4.5 20:07:03 10° N 20:12:34 46° ENE 20:15:17 27° SE
Cosmos 2084 4.0 20:10:36 10° NNW 20:13:43 33° NNE 20:13:43 33° NNE
DELTA 2 R/B (1) 4.4 20:11:13 10° W 20:16:27 42° SSW 20:19:09 25° SE
Cosmos 2227 Rocket 4.0 20:16:19 10° SSE 20:17:28 15° SSE 20:17:28 15° SSE
Resurs 01 Rocket 2.8 20:23:45 27° NNE 20:23:45 27° NNE 20:26:17 10° N
SL-16 R/B 3.7 20:18:24 10° N 20:21:48 19° NE 20:21:48 19° NE
ALOS 3.5 20:20:57 10° S 20:25:23 43° W 20:29:52 10° NNW
Cosmos 1048 Rocket 4.1 20:21:30 10° SSW 20:26:37 74° WNW 20:31:45 10° NNE
Envisat 3.5 20:35:33 40° NE 20:35:33 40° NE 20:39:27 10° N
Cosmos 2360 Rocket 4.3 20:30:08 10° NW 20:34:46 27° WSW 20:39:23 10° SSW
APEX 4.2 20:33:10 10° SW 20:35:53 34° WNW 20:35:53 34° WNW
Cosmos 1980 3.8 20:30:34 10° NNW 20:36:07 53° ENE 20:36:25 52° ENE
NOSS 0 Rocket 3.8 20:30:00 10° NNW 20:36:10 70° ENE 20:37:56 47° SE
Thor Agena Rocket 3.8 20:31:40 10° N 20:36:44 66° WNW 20:41:44 10° SSW
Meteor 2-2 Rocket 4.1 20:32:57 10° S 20:38:35 63° E 20:44:09 10° NNE
COSMOS 2428 3.3 20:33:10 10° NNW 20:38:43 56° WSW 20:44:03 11° S
Cosmos 2333 Rocket 2.1 20:36:18 10° NNW 20:42:05 83° ENE 20:43:38 51° SSE
Sich 1 3.2 20:38:53 10° NNW 20:43:15 70° W 20:44:35 43° SSW
Cosmos 2219 3.5 20:41:41 10° SSW 20:47:24 68° WNW 20:53:09 10° NNE
ATLAS 5 CENTAUR R/B 4.5 20:47:40 10° N 20:48:47 11° NNE 20:49:30 10° NNE
Abrixas rocket 4.4 20:45:49 10° WNW 20:47:29 23° NW 20:47:29 23° NW
BREEZE-M DEB (TANK) 2.9 20:44:05 10° W 20:52:04 69° N 20:52:04 69° N
Centaur D AC-29 3.8 20:56:31 10° SW 20:58:15 11° SSW 20:59:12 11° SSW
Cosmos 44 4.2 20:56:52 10° WSW 21:00:56 38° NW 21:01:36 36° NNW
Cosmos 1331 Rocket 4.0 20:57:46 10° NNW 21:02:36 75° NW 21:02:36 75° NW
Cosmos 1633 Rocket 4.0 21:04:33 10° NNW 21:08:36 46° W 21:08:36 46° W
USA 267 3.1 21:12:42 76° SE 21:12:42 76° SE 21:19:08 10° SW
MOS 1-B Rocket 4.2 21:15:59 48° SSW 21:17:22 61° W 21:23:23 10° NNW
Lacrosse 5 rocket 4.2 21:18:24 10° NNW 21:19:08 12° NNW 21:19:08 12° NNW
Cosmos 2219 Rocket 3.4 21:18:28 10° NW 21:23:37 38° WSW 21:25:02 33° SW
USA 234 3.9 21:49:37 49° NNW 21:49:37 49° NNW 21:54:31 10° NW
CZ-4C R/B 3.7 21:48:49 10° W 21:53:38 31° NW 21:53:44 31° NW
Cosmos 2237 Rocket 3.7 21:51:11 10° NW 21:55:03 34° WNW 21:55:03 34° WNW
Resurs 01 Rocket 4.5 22:01:21 14° NW 22:01:21 14° NW 22:02:19 10° NW
SL-16 R/B 4.1 22:01:33 10° NNW 22:03:41 24° NNW 22:03:41 24° NNW
